Weather in Rabochiy

Russia / Tambov Oblast     53°11′32″N   41°35′16″E
temp.,
°C
wind,
m/s
gust,
m/s
humid.,
%
clouds,
%
prec.,
mm/h
press.,
hPa
HPBL,
m
27 february, sat
sat2700:00+2w7159053 0.0 1005503
03:00+1w7139272 0.0 1004686
06:00+1wnw71397100 0.1 1002684
09:00+1w81598100 0.1 1002886
12:00−2nw91591100 0.9 1003897
15:00−7nnw81287100 1.0 1006765
18:00−9nnw51091100 0.1 1009541
21:00−11nnw41094100 0.1 1012309
28 february, sun
sun2800:00−13nw369681 0.0 1013145
03:00−14nw349649 0.0 101491
06:00−15nw349512 0.0 101560
09:00−12nw369518 0.0 1015213
12:00−9nw359292 0.0 1015349
15:00−8nw359295 0.1 1016386
18:00−10nw239598 0.0 101622
21:00−11nnw2295100 0.1 101921
1 march, mon
mon100:00−11nne119699 0.1 102021
03:00−11nnw129695 0.1 102221
06:00−11nnw019797 0.0 102321
09:00−9nnw119597 0.1 102573
12:00−6wnw229096 0.0 1025285
15:00−5wsw349297 0.1 1025345
18:00−7wsw339673 0.0 102336
21:00−5wsw5119578 0.1 1022326
2 march, tue
tue200:00−3wsw51195100 0.1 1019386
03:00−2sw71494100 0.3 1016485
06:00−1wsw71597100 1.1 1012681
09:00+1w71299100 1.8 1010675
12:00+1nw71396100 0.4 1009778
15:000nw6119592 0.5 1009790
18:00−3wnw4109082 0.1 1010222
21:00−1nw5129284 0.1 1011584
3 march, wed
wed300:00−2nw61491100 0.1 1011588
03:00−3nw6119297 0.1 1012635
06:00−4nw5119397 0.1 1013481
09:00−3nnw7109096 0.1 1014799
12:00−2nw6108996 0.1 1015732
15:00−2nw7108898 0.2 1016900
18:00−2nw51189100 0.1 1016654
21:00−3wnw4119399 0.1 1018414